To NAV CANADA Home Page Login to a new session Search on AWWS site Feedback and Comments Disclaimer Vers la page française équivalente Tips FAQ What's new on the site To the Forecasts and Observations / NOTAM section To "File a Flight Plan" website Publications and other links Update of the User's profile FIC Telephone Numbers My Weather Data Folder Route Weather Data Regional Weather Data Local Weather Data To the Forecasts and Observations / NOTAM section
Request Generated 04/26/2015 at 09:40:47 UTC . Weather information available at that time is displayed.

METAR/TAF

OTTAWA/GATINEAU/QC    

LWIS CYND 260900Z AUTO 33003KT 260V350 02/M01 A2977=
LWIS CYND 260800Z AUTO 00000KT 04/M01 A2977=
LWIS CYND 260700Z AUTO VRB02KT 04/M01 A2977=

*** REMARK        : Forecast period has ended; this was the last TAF issued
*** REMARQUE : La période de prévision est échue; ceci était le dernier TAF qui a été émis
TAF CYND 251738Z 2518/2601 33012KT P6SM BKN060 TEMPO 2518/2521 SCT060
BECMG 2523/2601 34006KT
RMK NXT FCST WILL BE ISSUED AT 261245Z=
Your time UTC time
Weather data provided by Environment Canada and NAV CANADA